Weather History for Big Bear City, CA

Change the Weather History Date:

Friday, April 27, 2012

  Actual Average (KBUO) Record (KBUO)
Temperature  
Mean Temperature 44 °F -  
Max Temperature 59 °F 70 °F 82 °F (1997)
Min Temperature 28 °F 46 °F 42 °F (1998)
Degree Days  
Heating Degree Days 22    
Moisture  
Dew Point 28 °F    
Average Humidity 54    
Maximum Humidity 81    
Minimum Humidity 30    
Precipitation  
Precipitation 0.00 in - - ()
Sea Level Pressure  
Sea Level Pressure 30.12 in    
Wind  
Wind Speed 5 mph (East)    
Max Wind Speed 15 mph    
Max Gust Speed 21 mph    
Visibility 10 miles    
Events      
Averages and records for this station are not official NWS values.
T = Trace of Precipitation, MM = Missing Value Source: NWS Daily Summary

Daily Weather History Graph

Daily Weather History Graph

Search for Another Location

Airport:

Trip Planner

Search our weather history database for the weather conditions in past years. The results will help you decide how hot, cold, wet, or windy it might be!

Date:

Astronomy

Apr. 27, 2012 Rise Set
Actual Time 6:01 AM PDT 7:28 PM PDT
Civil Twilight 5:34 AM PDT 7:55 PM PDT
Nautical Twilight 5:03 AM PDT 8:27 PM PDT
Astronomical Twilight 4:29 AM PDT 9:00 PM PDT
Moon 10:47 AM PDT (4/27) 12:14 AM PDT (4/27)
Length of Visible Light 14h 20m
Length of Day
13h 27m
Waxing Crescent, 34% of the Moon is Illuminated
Apr 27
Waxing Crescent
Apr 29
First Quarter
May 5
Full
May 12
Last Quarter
May 20
New

Hourly Weather History & Observations

Time (PDT) Temp. Windchill Dew Point Humidity Pressure Visibility Wind Dir Wind Speed Gust Speed Precip Events Conditions
12:35 AM 37.4 °F 29.8 °F 30.2 °F 75% 30.09 in 10.0 mi West 11.5 mph 20.7 mph N/A   Scattered Clouds
12:55 AM 37.4 °F 30.3 °F 30.2 °F 75% 30.10 in 10.0 mi WSW 10.4 mph - N/A   Clear
1:15 AM 37.4 °F 34.9 °F 28.4 °F 70% 30.11 in 10.0 mi SE 3.5 mph - N/A   Clear
1:35 AM 35.6 °F 32.8 °F 28.4 °F 75% 30.09 in 10.0 mi SSW 3.5 mph - N/A   Clear
1:55 AM 33.8 °F - 28.4 °F 81% 30.09 in 10.0 mi Calm Calm - N/A   Clear
2:15 AM 33.8 °F 29.6 °F 26.6 °F 75% 30.09 in 10.0 mi WNW 4.6 mph - N/A   Clear
2:35 AM 32.0 °F - 26.6 °F 80% 30.08 in 10.0 mi Calm Calm - N/A   Clear
2:55 AM 32.0 °F 28.7 °F 26.6 °F 80% 30.08 in 10.0 mi South 3.5 mph - N/A   Clear
3:15 AM 32.0 °F - 26.6 °F 80% 30.09 in 10.0 mi Calm Calm - N/A   Clear
3:35 AM 32.0 °F - 26.6 °F 80% 30.09 in 10.0 mi Calm Calm - N/A   Clear
3:55 AM 32.0 °F - 24.8 °F 75% 30.09 in 10.0 mi Calm Calm - N/A   Clear
4:15 AM 30.2 °F - 23.0 °F 75% 30.09 in 10.0 mi Calm Calm - N/A   Clear
4:35 AM 30.2 °F - 23.0 °F 75% 30.09 in 10.0 mi Calm Calm - N/A   Clear
5:15 AM 30.2 °F - 23.0 °F 75% 30.09 in 10.0 mi Calm Calm - N/A   Clear
5:35 AM 28.4 °F - 23.0 °F 80% 30.09 in 10.0 mi Calm Calm - N/A   Clear
5:55 AM 28.4 °F - 23.0 °F 80% 30.09 in 10.0 mi Calm Calm - N/A   Clear
6:15 AM 30.2 °F - 23.0 °F 75% 30.10 in 10.0 mi Calm Calm - N/A   Clear
6:35 AM 30.2 °F - 23.0 °F 75% 30.10 in 10.0 mi Calm Calm - N/A   Clear
6:55 AM 32.0 °F - 24.8 °F 75% 30.12 in 10.0 mi Calm Calm - N/A   Clear
7:15 AM 32.0 °F - 24.8 °F 75% 30.13 in 10.0 mi Calm Calm - N/A   Clear
7:35 AM 35.6 °F - 24.8 °F 65% 30.13 in 10.0 mi Calm Calm - N/A   Clear
7:55 AM 41.0 °F - 24.8 °F 53% 30.14 in 10.0 mi Calm Calm - N/A   Clear
8:15 AM 44.6 °F - 19.4 °F 37% 30.13 in 10.0 mi Calm Calm - N/A   Clear
8:35 AM 46.4 °F 41.9 °F 19.4 °F 34% 30.14 in 10.0 mi ENE 9.2 mph - N/A   Clear
8:55 AM 48.2 °F - 19.4 °F 32% 30.14 in 10.0 mi East 10.4 mph - N/A   Clear
9:15 AM 50.0 °F - 21.2 °F 32% 30.14 in 10.0 mi East 11.5 mph - N/A   Clear
9:35 AM 50.0 °F - 19.4 °F 30% 30.15 in 10.0 mi East 13.8 mph - N/A   Clear
9:55 AM 50.0 °F - 21.2 °F 32% 30.16 in 10.0 mi ENE 11.5 mph - N/A   Clear
10:15 AM 51.8 °F - 23.0 °F 33% 30.16 in 10.0 mi ENE 11.5 mph 16.1 mph N/A   Clear
10:35 AM 51.8 °F - 26.6 °F 38% 30.16 in 10.0 mi East 10.4 mph 18.4 mph N/A   Clear
10:55 AM 51.8 °F - 28.4 °F 41% 30.16 in 10.0 mi ENE 11.5 mph 17.3 mph N/A   Clear
11:15 AM 51.8 °F - 28.4 °F 41% 30.16 in 10.0 mi East 9.2 mph - N/A   Clear
11:35 AM 51.8 °F - 30.2 °F 44% 30.17 in 10.0 mi ENE 11.5 mph - N/A   Clear
11:55 AM 53.6 °F - 30.2 °F 41% 30.17 in 10.0 mi East 9.2 mph - N/A   Clear
12:15 PM 53.6 °F - 30.2 °F 41% 30.16 in 10.0 mi NE 5.8 mph 9.2 mph N/A   Clear
12:35 PM 53.6 °F - 30.2 °F 41% 30.16 in 10.0 mi East 9.2 mph - N/A   Clear
12:55 PM 55.4 °F - 30.2 °F 38% 30.16 in 10.0 mi ENE 6.9 mph - N/A   Clear
1:15 PM 57.2 °F - 30.2 °F 36% 30.15 in 10.0 mi ENE 15.0 mph - N/A   Clear
1:35 PM 55.4 °F - 30.2 °F 38% 30.15 in 10.0 mi East 9.2 mph 16.1 mph N/A   Clear
1:55 PM 57.2 °F - 30.2 °F 36% 30.16 in 10.0 mi East 10.4 mph 17.3 mph N/A   Clear
2:15 PM 57.2 °F - 30.2 °F 36% 30.15 in 10.0 mi East 9.2 mph - N/A   Clear
2:35 PM 57.2 °F - 30.2 °F 36% 30.14 in 10.0 mi ENE 10.4 mph 16.1 mph N/A   Clear
2:55 PM 59.0 °F - 30.2 °F 34% 30.14 in 10.0 mi East 6.9 mph - N/A   Clear
3:15 PM 59.0 °F - 30.2 °F 34% 30.13 in 10.0 mi ENE 6.9 mph - N/A   Clear
3:35 PM 59.0 °F - 30.2 °F 34% 30.12 in 10.0 mi ESE 9.2 mph - N/A   Clear
3:55 PM 59.0 °F - 30.2 °F 34% 30.12 in 10.0 mi ENE 11.5 mph - N/A   Clear
4:15 PM 59.0 °F - 30.2 °F 34% 30.12 in 10.0 mi ENE 9.2 mph - N/A   Clear
4:35 PM 59.0 °F - 30.2 °F 34% 30.11 in 10.0 mi ENE 6.9 mph - N/A   Clear
4:55 PM 59.0 °F - 30.2 °F 34% 30.11 in 10.0 mi ENE 6.9 mph - N/A   Clear
5:15 PM 59.0 °F - 30.2 °F 34% 30.11 in 10.0 mi East 10.4 mph - N/A   Clear
5:35 PM 57.2 °F - 30.2 °F 36% 30.11 in 10.0 mi East 4.6 mph - N/A   Clear
5:55 PM 57.2 °F - 30.2 °F 36% 30.11 in 10.0 mi East 9.2 mph - N/A   Clear
6:15 PM 55.4 °F - 30.2 °F 38% 30.11 in 10.0 mi NE 5.8 mph - N/A   Clear
6:35 PM 55.4 °F - 30.2 °F 38% 30.11 in 10.0 mi ENE 6.9 mph - N/A   Clear
6:55 PM 55.4 °F - 30.2 °F 38% 30.11 in 10.0 mi ENE 4.6 mph - N/A   Clear
7:15 PM 53.6 °F - 30.2 °F 41% 30.11 in 10.0 mi NNE 3.5 mph - N/A   Clear
7:35 PM 51.8 °F - 30.2 °F 44% 30.12 in 10.0 mi Calm Calm - N/A   Clear
7:55 PM 50.0 °F - 32.0 °F 50% 30.12 in 10.0 mi Calm Calm - N/A   Clear
8:15 PM 48.2 °F - 32.0 °F 54% 30.13 in 10.0 mi Calm Calm - N/A   Clear
9:15 PM 42.8 °F - 32.0 °F 66% 30.14 in 10.0 mi Calm Calm - N/A   Clear
9:35 PM 42.8 °F 40.1 °F 32.0 °F 66% 30.14 in 10.0 mi SE 4.6 mph - N/A   Clear
9:55 PM 42.8 °F - 32.0 °F 66% 30.14 in 10.0 mi Calm Calm - N/A   Clear
10:15 PM 41.0 °F - 32.0 °F 70% 30.14 in 10.0 mi Calm Calm - N/A   Clear
10:35 PM 41.0 °F - 32.0 °F 70% 30.14 in 10.0 mi Calm Calm - N/A   Clear
10:55 PM 37.4 °F - 32.0 °F 81% 30.14 in 10.0 mi Calm Calm - N/A   Clear
11:15 PM 37.4 °F - 32.0 °F 81% 30.14 in 10.0 mi Calm Calm - N/A   Clear
11:35 PM 37.4 °F - 30.2 °F 75% 30.14 in 10.0 mi Calm Calm - N/A   Clear
11:55 PM 35.6 °F - 30.2 °F 81% 30.13 in 10.0 mi Calm Calm - N/A   Clear